Edinburg, TX

12:55 PM CDT on June 23, 2017 (GMT -0500)
Edinburg

Weather History for KEBG - May, 2014

Change the Weather History Date:

Friday, May 9, 2014

  Actual Average (KMFE) Record (KMFE)
Temperature  
Mean Temperature 82 °F -  
Max Temperature 95 °F 89 °F 103 °F (1998)
Min Temperature 70 °F 69 °F 59 °F (1961)
Cooling Degree Days 18    
Growing Degree Days 32 (Base 50)    
Moisture  
Dew Point 71 °F    
Average Humidity 69    
Maximum Humidity 88    
Minimum Humidity 39    
Precipitation  
Precipitation 0.66 in - - ()
Sea Level Pressure  
Sea Level Pressure 29.83 in    
Wind  
Wind Speed 11 mph (SE)    
Max Wind Speed 32 mph    
Max Gust Speed 45 mph    
Visibility 8 miles    
Events Rain , Thunderstorm    
Averages and records for this station are not official NWS values.
T = Trace of Precipitation, MM = Missing Value Source: NWS Daily Summary

Daily Weather History Graph

Daily Weather History Graph

Search for Another Location

Airport or City:

Trip Planner

Search our weather history database for the weather conditions in past years. The results will help you decide how hot, cold, wet, or windy it might be!

Date:

Astronomy

May. 09, 2014 Rise Set
Actual Time 6:49 AM CDT 8:09 PM CDT
Civil Twilight 6:24 AM CDT 8:33 PM CDT
Nautical Twilight 5:54 AM CDT 9:03 PM CDT
Astronomical Twilight 5:24 AM CDT 9:34 PM CDT
Moon 3:35 PM CDT (5/9) 3:21 AM CDT (5/9)
Length of Visible Light 14h 09m
Length of Day
13h 19m
Waxing Gibbous, 74% of the Moon is Illuminated
May 9
Waxing Gibbous
May 14
Full
May 21
Last Quarter
May 28
New
Jun 5
First Quarter

Hourly Weather History & Observations

Time (CDT) Temp. Heat Index Dew Point Humidity Pressure Visibility Wind Dir Wind Speed Gust Speed Precip Events Conditions
12:15 AM 79.7 °F - 73.6 °F 81% 29.85 in 10.0 mi SSE 10.4 mph 17.3 mph N/A   Overcast
12:35 AM 79.7 °F - 73.6 °F 81% 29.84 in 10.0 mi SSE 10.4 mph 16.1 mph N/A   Mostly Cloudy
12:55 AM 79.7 °F - 73.8 °F 82% 29.84 in 10.0 mi SSE 9.2 mph - N/A   Scattered Clouds
1:15 AM 79.7 °F - 73.6 °F 81% 29.83 in 7.0 mi SSE 9.2 mph - N/A   Scattered Clouds
1:35 AM 79.7 °F - 73.6 °F 81% 29.82 in 7.0 mi SSE 6.9 mph - N/A   Scattered Clouds
1:55 AM 79.7 °F - 73.6 °F 81% 29.82 in 7.0 mi SSE 5.8 mph - N/A   Mostly Cloudy
2:15 AM 79.9 °F - 73.9 °F 82% 29.82 in 7.0 mi SSE 8.1 mph - N/A   Overcast
2:35 AM 79.9 °F - 74.1 °F 82% 29.81 in 7.0 mi SSE 8.1 mph - N/A   Overcast
2:55 AM 80.1 °F 84.6 °F 74.3 °F 82% 29.81 in 7.0 mi SSE 10.4 mph - N/A   Overcast
3:15 AM 80.6 °F 85.7 °F 74.3 °F 81% 29.80 in 7.0 mi SSE 9.2 mph - N/A   Overcast
3:55 AM 80.6 °F 85.7 °F 74.3 °F 81% 29.79 in 7.0 mi SSE 10.4 mph - N/A   Overcast
4:15 AM 80.6 °F 85.7 °F 74.1 °F 81% 29.80 in 7.0 mi SSE 11.5 mph - N/A   Overcast
4:35 AM 80.6 °F 85.5 °F 73.9 °F 80% 29.80 in 7.0 mi SSE 8.1 mph - N/A   Overcast
4:55 AM 80.6 °F 85.5 °F 73.9 °F 80% 29.80 in 7.0 mi SSE 8.1 mph - N/A   Overcast
5:15 AM 80.6 °F 85.7 °F 74.3 °F 81% 29.81 in 7.0 mi SSE 6.9 mph - N/A   Overcast
5:35 AM 80.6 °F 85.7 °F 74.3 °F 81% 29.80 in 7.0 mi SSE 6.9 mph - N/A   Overcast
5:55 AM 80.6 °F 85.7 °F 74.3 °F 81% 29.80 in 7.0 mi SE 5.8 mph - N/A   Overcast
6:15 AM 80.6 °F 85.7 °F 74.3 °F 81% 29.81 in 7.0 mi SE 6.9 mph - N/A   Overcast
6:35 AM 80.2 °F 85.2 °F 74.5 °F 83% 29.81 in 5.0 mi SE 5.8 mph - N/A   Haze
6:55 AM 80.2 °F 85.2 °F 74.5 °F 83% 29.82 in 5.0 mi SE 5.8 mph - N/A   Haze
7:15 AM 80.2 °F 85.2 °F 74.5 °F 83% 29.82 in 4.0 mi ESE 6.9 mph - N/A   Haze
7:35 AM 80.6 °F 85.9 °F 74.7 °F 82% 29.83 in 4.0 mi SE 5.8 mph - N/A   Haze
7:55 AM 80.6 °F 86.0 °F 74.8 °F 83% 29.84 in 4.0 mi SE 10.4 mph - N/A   Haze
8:15 AM 80.8 °F 86.5 °F 75.0 °F 83% 29.85 in 4.0 mi SE 10.4 mph - N/A   Haze
8:35 AM 81.5 °F 87.6 °F 74.8 °F 80% 29.86 in 4.0 mi ESE 10.4 mph - N/A   Haze
8:55 AM 81.7 °F 88.0 °F 74.8 °F 80% 29.86 in 5.0 mi ESE 9.2 mph - N/A   Haze
9:15 AM 82.4 °F 89.0 °F 74.7 °F 77% 29.87 in 5.0 mi SE 11.5 mph - N/A   Haze
9:35 AM 82.9 °F 89.9 °F 74.7 °F 76% 29.87 in 5.0 mi ESE 13.8 mph - N/A   Haze
9:55 AM 84.2 °F 91.6 °F 74.5 °F 72% 29.87 in 5.0 mi SE 13.8 mph 18.4 mph N/A   Haze
10:15 AM 84.7 °F 92.1 °F 73.9 °F 70% 29.86 in 7.0 mi SE 13.8 mph - N/A   Overcast
10:35 AM 85.8 °F 93.4 °F 73.8 °F 67% 29.86 in 7.0 mi SSE 13.8 mph - N/A   Overcast
10:55 AM 85.8 °F 93.0 °F 73.2 °F 66% 29.86 in 7.0 mi SE 13.8 mph 19.6 mph N/A   Overcast
11:15 AM 86.5 °F 93.8 °F 72.9 °F 64% 29.86 in 7.0 mi SSE 11.5 mph - N/A   Overcast
11:35 AM 87.4 °F 94.4 °F 72.7 °F 61% 29.87 in 10.0 mi SSE 11.5 mph 18.4 mph N/A   Overcast
11:55 AM 87.4 °F 94.4 °F 72.7 °F 61% 29.87 in 10.0 mi SE 13.8 mph 17.3 mph N/A   Overcast
12:15 PM 88.5 °F 95.3 °F 72.0 °F 58% 29.86 in 10.0 mi SSE 12.7 mph 18.4 mph N/A   Overcast
12:35 PM 88.9 °F 96.6 °F 72.9 °F 59% 29.86 in 10.0 mi SE 13.8 mph 19.6 mph N/A   Overcast
12:55 PM 89.2 °F 96.4 °F 72.3 °F 57% 29.85 in 10.0 mi SE 13.8 mph 18.4 mph N/A   Overcast
1:15 PM 90.9 °F 98.3 °F 72.3 °F 54% 29.85 in 10.0 mi SSE 11.5 mph 16.1 mph N/A   Mostly Cloudy
1:35 PM 90.9 °F 97.3 °F 70.9 °F 52% 29.85 in 10.0 mi South 11.5 mph - N/A   Mostly Cloudy
1:55 PM 91.6 °F 97.7 °F 70.3 °F 50% 29.84 in 10.0 mi SSE 12.7 mph - N/A   Scattered Clouds
2:15 PM 92.3 °F 97.6 °F 69.6 °F 47% 29.83 in 10.0 mi SSE 11.5 mph - N/A   Mostly Cloudy
2:35 PM 92.8 °F 98.1 °F 69.3 °F 46% 29.82 in 10.0 mi SSE 10.4 mph 17.3 mph N/A   Mostly Cloudy
2:55 PM 92.7 °F 98.3 °F 69.8 °F 47% 29.81 in 10.0 mi SSE 12.7 mph 18.4 mph N/A   Mostly Cloudy
3:15 PM 92.7 °F 98.3 °F 69.4 °F 47% 29.80 in 10.0 mi ESE 13.8 mph 18.4 mph N/A   Mostly Cloudy
3:35 PM 95.0 °F 100.7 °F 69.3 °F 43% 29.79 in 10.0 mi SE 13.8 mph 20.7 mph N/A   Mostly Cloudy
3:55 PM 95.0 °F 99.0 °F 67.5 °F 40% 29.79 in 10.0 mi ESE 15.0 mph 20.7 mph N/A   Mostly Cloudy
4:15 PM 94.8 °F 98.1 °F 66.4 °F 39% 29.78 in 10.0 mi SE 13.8 mph - N/A   Scattered Clouds
4:35 PM 93.9 °F 97.5 °F 66.9 °F 41% 29.77 in 10.0 mi SE 11.5 mph - N/A   Scattered Clouds
4:55 PM 94.1 °F 97.9 °F 67.1 °F 41% 29.75 in 10.0 mi ESE 13.8 mph 17.3 mph N/A   Scattered Clouds
5:15 PM 94.1 °F 97.3 °F 66.7 °F 40% 29.74 in 10.0 mi SSE 16.1 mph 19.6 mph N/A   Scattered Clouds
5:35 PM 94.1 °F 97.9 °F 67.3 °F 41% 29.75 in 10.0 mi SSE 10.4 mph 19.6 mph N/A   Clear
5:55 PM 93.2 °F 98.3 °F 68.9 °F 45% 29.74 in 10.0 mi ESE 17.3 mph - N/A   Scattered Clouds
6:15 PM 90.1 °F 97.3 °F 71.8 °F 55% 29.73 in 10.0 mi ESE 13.8 mph 23.0 mph N/A   Scattered Clouds
6:35 PM 88.9 °F 96.1 °F 72.5 °F 58% 29.74 in 10.0 mi East 17.3 mph 21.9 mph N/A   Mostly Cloudy
6:55 PM 87.3 °F 94.0 °F 72.5 °F 61% 29.76 in 10.0 mi East 16.1 mph 21.9 mph N/A   Mostly Cloudy
7:15 PM 86.4 °F 93.0 °F 72.5 °F 63% 29.79 in 10.0 mi East 11.5 mph - N/A Thunderstorm Scattered Clouds
7:35 PM 86.0 °F 92.2 °F 72.1 °F 63% 29.79 in 10.0 mi East 13.8 mph - N/A   Mostly Cloudy
7:55 PM 84.7 °F 91.0 °F 72.5 °F 67% 29.84 in 10.0 mi ENE 13.8 mph 17.3 mph N/A Thunderstorm Overcast
8:15 PM 83.1 °F 88.9 °F 72.9 °F 71% 29.89 in 10.0 mi NE 8.1 mph - N/A Rain , Thunderstorm Light Thunderstorms and Rain
8:35 PM 70.9 °F - 66.0 °F 85% 29.95 in 1.2 mi NNW 23.0 mph 44.9 mph 0.36 in Rain , Thunderstorm Heavy Thunderstorms and Rain
8:55 PM 70.9 °F - 67.3 °F 88% 29.97 in 5.0 mi North 25.3 mph 32.2 mph 0.52 in Rain , Thunderstorm Thunderstorms and Rain
9:15 PM 71.2 °F - 67.3 °F 87% 29.94 in 7.0 mi North 32.2 mph 43.7 mph 0.05 in Rain , Thunderstorm Light Thunderstorms and Rain
9:35 PM 71.8 °F - 66.9 °F 85% 29.89 in 7.0 mi NE 32.2 mph 39.1 mph 0.09 in Rain Light Rain
9:55 PM 71.1 °F - 66.2 °F 85% 29.87 in 7.0 mi NE 32.2 mph 41.4 mph 0.13 in Rain Light Rain
10:15 PM 70.3 °F - 65.7 °F 85% 29.84 in 10.0 mi ENE 26.5 mph 43.7 mph 0.01 in   Light Drizzle
10:35 PM 70.7 °F - 65.3 °F 83% 29.84 in 10.0 mi ENE 17.3 mph 34.5 mph 0.01 in Thunderstorm Clear
10:55 PM 71.2 °F - 64.4 °F 79% 29.85 in 10.0 mi ENE 15.0 mph 23.0 mph 0.01 in   Clear
11:15 PM 71.2 °F - 64.4 °F 79% 29.85 in 10.0 mi NE 10.4 mph - N/A   Clear
11:35 PM 71.4 °F - 64.4 °F 78% 29.87 in 10.0 mi NNE 6.9 mph - N/A   Clear
11:55 PM 71.1 °F - 64.0 °F 78% 29.88 in 10.0 mi Calm Calm - N/A   Clear